EW3148 Weather Reports


time (UTC)temp
F
wind
direction
speed
knots
gust
knots
rain 1hr
in
rain 24hr
in
rain mn
in
humidity
%
barometer
mb
20260902120214 77 187 0.0 0.9 0.00 0.00 0.00 80 1012.0
20260902115150 77 187 0.0 0.0 0.00 0.00 0.00 80 1012.0
20260902114120 77 211 0.0 0.0 0.00 0.00 0.00 79 1012.0
20260902113125 77 210 0.0 0.0 0.00 0.00 0.00 79 1011.9
20260902105900 78 311 0.0 0.0 0.00 0.00 0.00 77 1011.8
20260902104908 79 318 0.0 0.9 0.00 0.00 0.00 76 1011.7
20260902103832 79 261 0.0 1.7 0.00 0.00 0.00 76 1011.7
20260902102821 79 239 0.0 5.2 0.00 0.00 0.00 76 1011.7
20260902100613 79 237 0.9 6.1 0.00 0.00 0.00 76 1011.5
20260902093318 79 231 0.9 7.0 0.00 0.00 0.00 76 1011.5
20260902091158 80 254 1.7 3.5 0.00 0.00 0.00 75 1011.5
20260902085107 80 194 0.9 6.1 0.00 0.00 0.00 73 1011.7
20260902082914 80 200 1.7 5.2 0.00 0.00 0.00 72 1011.8
20260902081852 80 210 1.7 5.2 0.00 0.00 0.00 72 1011.9
20260902080904 81 199 0.9 5.2 0.00 0.00 0.00 72 1011.9
20260902074740 81 209 1.7 6.1 0.00 0.00 0.00 71 1011.8
20260902073722 81 174 1.7 4.3 0.00 0.00 0.00 70 1011.9
20260902071528 82 197 1.7 7.0 0.00 0.00 0.00 70 1011.9
20260902070534 82 207 1.7 7.0 0.00 0.00 0.00 69 1012.0
20260902064333 82 210 1.7 7.0 0.00 0.00 0.00 70 1012.1
20260902063318 82 188 1.7 7.0 0.00 0.00 0.00 71 1012.0
20260902062251 82 194 1.7 6.1 0.00 0.00 0.00 72 1012.0
20260902061245 82 180 1.7 7.0 0.00 0.00 0.00 72 1012.1
20260902060227 82 193 1.7 7.0 0.00 0.00 0.00 72 1012.1
20260902054114 82 229 2.6 6.1 0.00 0.00 0.00 72 1012.2
20260902053056 83 176 1.7 7.0 0.00 0.00 0.00 71 1012.1
20260902050919 83 155 2.6 6.1 0.00 0.00 0.00 70 1012.2
20260902045851 84 167 1.7 5.2 0.00 0.00 0.00 69 1012.1
20260902044837 84 206 1.7 7.8 0.00 0.00 0.00 68 1012.0
20260902043829 84 184 2.6 7.8 0.00 0.00 0.00 67 1012.0
20260902042818 84 161 1.7 7.0 0.00 0.00 0.00 66 1012.0
20260902041839 85 127 1.7 7.0 0.00 0.00 0.00 65 1012.1
20260902040854 85 139 2.6 6.1 0.00 0.00 0.00 64 1012.0
20260902035822 85 143 2.6 7.0 0.00 0.00 0.00 64 1012.0
20260902033658 85 156 0.9 4.3 0.00 0.00 0.00 63 1011.9
20260902032652 86 165 1.7 4.3 0.00 0.00 0.00 62 1011.8
20260902030535 86 135 0.9 3.5 0.00 0.00 0.00 61 1011.4
20260902025524 86 107 0.9 2.6 0.00 0.00 0.00 60 1011.3
20260902024521 87 90 0.9 4.3 0.00 0.00 0.00 59 1011.0
20260902021243 88 111 0.9 4.3 0.00 0.00 0.00 58 1010.3
20260902020307 88 137 0.9 4.3 0.00 0.00 0.00 57 1010.3
20260902015308 89 139 0.9 4.3 0.00 0.00 0.00 57 1010.3
20260902014247 89 126 0.9 3.5 0.00 0.00 0.00 56 1010.1
20260902013254 90 121 0.9 3.5 0.00 0.00 0.00 55 1010.1
20260902012311 90 158 0.9 3.5 0.00 0.00 0.00 55 1010.1
20260902011302 91 175 0.9 3.5 0.00 0.00 0.00 54 1009.9
20260902010308 91 149 0.9 4.3 0.00 0.00 0.00 53 1009.8
20260902004208 92 119 1.7 5.2 0.00 0.00 0.00 51 1009.8
20260902003145 92 140 2.6 6.1 0.00 0.00 0.00 50 1009.9
20260902001017 93 112 2.6 8.7 0.00 0.00 0.00 49 1009.9
20260902000011 94 143 3.5 9.6 0.00 0.00 0.00 48 1009.9
20260901235029 94 225 2.6 9.6 0.00 0.00 0.00 47 1009.9
20260901232944 96 136 3.5 7.0 0.00 0.00 0.00 43 1009.8
20260901231928 97 87 1.7 7.8 0.00 0.00 0.00 40 1009.6
20260901225826 100 87 3.5 7.8 0.00 0.00 0.00 38 1009.6
20260901224835 100 98 1.7 7.0 0.00 0.00 0.00 37 1009.6
20260901223801 100 89 1.7 7.0 0.00 0.00 0.00 37 1009.5
20260901222736 100 167 1.7 5.2 0.00 0.00 0.00 38 1009.6
20260901221749 100 84 0.9 5.2 0.00 0.00 0.00 38 1009.6
20260901220748 100 65 0.9 5.2 0.00 0.00 0.00 38 1009.7
20260901215804 100 50 1.7 6.1 0.00 0.00 0.00 39 1009.8
20260901214800 100 92 2.6 6.1 0.00 0.00 0.00 38 1009.9
20260901213743 100 277 1.7 6.1 0.00 0.00 0.00 38 1009.9
20260901210414 98 171 1.7 10.4 0.00 0.00 0.00 40 1010.3
20260901205346 98 83 2.6 10.4 0.00 0.00 0.00 42 1010.5
20260901204352 100 5 0.9 6.1 0.00 0.00 0.00 40 1010.6
20260901203352 99 183 1.7 6.1 0.00 0.00 0.00 41 1010.7
20260901202316 98 117 1.7 7.8 0.00 0.00 0.00 44 1010.9
20260901201336 97 157 1.7 10.4 0.00 0.00 0.00 45 1011.0
20260901200331 96 116 1.7 10.4 0.00 0.00 0.00 45 1011.2
20260901195345 97 33 0.9 9.6 0.00 0.00 0.00 45 1011.4
20260901194408 97 107 2.6 9.6 0.00 0.00 0.00 44 1011.5
20260901193336 97 117 2.6 7.8 0.00 0.00 0.00 44 1011.6
20260901192317 96 129 0.9 7.0 0.00 0.00 0.00 46 1011.6
20260901191319 96 184 0.9 6.1 0.00 0.00 0.00 45 1011.7
20260901185209 97 259 1.7 8.7 0.00 0.00 0.00 46 1012.0
20260901184228 95 108 1.7 7.0 0.00 0.00 0.00 48 1012.1
20260901183253 96 117 1.7 9.6 0.00 0.00 0.00 46 1012.4
20260901182240 96 119 3.5 9.6 0.00 0.00 0.00 46 1012.5
20260901181301 96 131 2.6 8.7 0.00 0.00 0.00 47 1012.6
20260901180255 95 318 2.6 8.7 0.00 0.00 0.00 47 1012.7
20260901175259 96 132 2.6 9.6 0.00 0.00 0.00 48 1013.0
20260901174306 96 157 2.6 9.6 0.00 0.00 0.00 47 1013.2
20260901172108 95 134 1.7 5.2 0.00 0.00 0.00 49 1013.4
20260901165944 94 164 2.6 8.7 0.00 0.00 0.00 50 1013.6
20260901164929 94 101 1.7 7.0 0.00 0.00 0.00 49 1013.7
20260901163914 95 120 1.7 7.0 0.00 0.00 0.00 49 1013.8
20260901162848 94 198 0.9 5.2 0.00 0.00 0.00 51 1013.8
20260901160647 92 228 0.9 4.3 0.00 0.00 0.00 53 1014.0
20260901155648 91 218 0.9 3.5 0.00 0.00 0.00 54 1014.0
20260901154615 91 317 0.9 2.6 0.00 0.00 0.00 56 1014.0
20260901153629 90 44 0.0 3.5 0.00 0.00 0.00 56 1014.0
20260901151433 88 244 0.0 1.7 0.00 0.00 0.00 62 1013.9
20260901150424 87 252 0.9 4.3 0.00 0.00 0.00 64 1014.0
20260901145403 87 302 0.9 4.3 0.00 0.00 0.00 69 1014.0
20260901143323 85 222 0.9 6.1 0.00 0.00 0.00 72 1014.0
20260901142348 84 238 0.9 6.1 0.00 0.00 0.00 74 1014.0
20260901141324 84 157 0.0 0.9 0.00 0.00 0.00 78 1014.2
20260901140329 83 238 0.9 5.2 0.00 0.00 0.00 79 1014.2
20260901135325 82 337 0.9 5.2 0.00 0.00 0.00 82 1014.2
20260901134326 81 283 0.9 5.2 0.00 0.00 0.00 83 1014.0
20260901133345 80 240 0.9 4.3 0.00 0.00 0.00 86 1013.8
20260901132339 79 259 0.0 4.3 0.00 0.00 0.00 87 1013.7
20260901130152 77 238 0.0 1.7 0.00 0.00 0.00 90 1013.6
20260901125213 77 238 0.0 1.7 0.00 0.00 0.00 90 1013.5
20260901124213 76 238 0.0 0.0 0.00 0.00 0.00 90 1013.4
20260901123213 76 238 0.0 0.9 0.00 0.00 0.00 90 1013.2
20260901122225 76 238 0.0 0.9 0.00 0.00 0.00 90 1013.2
20260901121202 76 238 0.0 0.0 0.00 0.00 0.00 89 1013.2